Location: Coupvray
(48.8929°N, 2.7967°E)
Time: 14:10:41
(UTC+00:00)

Altair 2 - Pass Details

Date: 23 January 2021
Orbit: 837 x 949 km, 90.2° (Epoch: 28 February)

Event Time Altitude Azimuth Distance (km) Brightness Sun altitude
Rises 06:04:42 0° 1° (N) 3,453 10.8 -13.8°
Reaches altitude 10° 06:07:05 10° 2° (N) 2,526 10.1 -13.5°
Maximum altitude 06:12:47 89° 95° (E) 895 7.8 -12.5°
Drops below altitude 10° 06:18:38 10° 184° (S) 2,584 10.4 -11.6°
Sets 06:21:05 0° 184° (S) 3,537 11.1 -11.2°
